EW2470 Weather Reports


time (UTC)temp
C
wind
direction
speed
KPH
gust
KPH
rain 1hr
cm
rain 24hr
cm
rain mn
cm
humidity
%
barometer
mb
20260506132017 20 203 4.8 11.3 0.00 0.00 0.00 82 1014.1
20260506131016 19 180 3.2 11.3 0.00 0.00 0.00 83 1014.0
20260506130016 19 180 4.8 11.3 0.00 0.00 0.00 82 1014.1
20260506125018 18 180 3.2 9.7 0.00 0.00 0.00 83 1013.9
20260506124037 18 180 3.2 9.7 0.00 0.00 0.00 84 1013.8
20260506123016 18 203 3.2 8.0 0.00 0.00 0.00 84 1013.8
20260506122016 18 225 3.2 4.8 0.00 0.00 0.00 83 1013.8
20260506121016 18 225 1.6 3.2 0.00 0.00 0.00 83 1013.7
20260506120017 18 225 3.2 6.4 0.00 0.00 0.00 83 1013.8
20260506115036 18 225 3.2 6.4 0.00 0.00 0.00 83 1013.7
20260506114018 18 225 3.2 6.4 0.00 0.00 0.00 83 1013.6
20260506113036 18 225 3.2 9.7 0.00 0.00 0.00 83 1013.4
20260506112037 18 225 1.6 4.8 0.00 0.00 0.00 83 1013.2
20260506111016 18 203 1.6 4.8 0.00 0.00 0.00 83 1012.9
20260506110016 17 225 1.6 8.0 0.00 0.00 0.00 83 1012.8
20260506105016 17 203 3.2 8.0 0.00 0.00 0.00 83 1012.8
20260506104016 17 225 1.6 4.8 0.00 0.00 0.00 83 1012.6
20260506103016 17 180 1.6 6.4 0.00 0.00 0.00 83 1012.5
20260506102016 17 203 1.6 3.2 0.00 0.00 0.00 82 1012.4
20260506101016 17 225 1.6 4.8 0.00 0.00 0.00 82 1012.4
20260506100016 17 225 1.6 6.4 0.00 0.00 0.00 81 1012.4
20260506095017 17 180 1.6 6.4 0.00 0.00 0.00 81 1012.4
20260506094036 17 180 3.2 8.0 0.00 0.00 0.00 81 1012.6
20260506093018 17 180 1.6 4.8 0.00 0.00 0.00 81 1012.5
20260506092017 17 180 1.6 3.2 0.00 0.00 0.00 80 1012.3
20260506091016 17 0.0 3.2 0.00 0.00 0.00 79 1012.3
20260506090058 17 0.0 3.2 0.00 0.00 0.00 79 1012.3
20260506085017 17 0.0 3.2 0.00 0.00 0.00 78 1012.5
20260506084036 17 0.0 3.2 0.00 0.00 0.00 78 1012.7
20260506083016 17 0.0 3.2 0.00 0.00 0.00 78 1012.8
20260506082016 17 0.0 3.2 0.00 0.00 0.00 77 1012.9
20260506081016 17 0.0 3.2 0.00 0.00 0.00 77 1012.9
20260506073015 18 0.0 3.2 0.00 0.00 0.00 74 1013.0
20260506072016 18 248 1.6 4.8 0.00 0.00 0.00 74 1013.0
20260506071015 18 225 1.6 4.8 0.00 0.00 0.00 73 1012.9
20260506062018 18 225 3.2 9.7 0.00 0.00 0.00 70 1012.7
20260506061016 17 203 3.2 8.0 0.00 0.00 0.00 71 1012.7
20260506051018 16 0.0 3.2 0.00 0.00 0.00 73 1012.9
20260506045038 16 0.0 3.2 0.00 0.00 0.00 73 1012.6
20260506044017 16 0.0 3.2 0.00 0.00 0.00 72 1012.8
20260506043016 16 0.0 0.0 0.00 0.00 0.00 72 1013.0
20260506042017 16 0.0 3.2 0.00 0.00 0.00 70 1012.9
20260506041100 16 0.0 0.0 0.00 0.00 0.00 71 1013.1
20260506040017 16 0.0 3.2 0.00 0.00 0.00 71 1013.1
20260506035017 16 0.0 0.0 0.00 0.00 0.00 70 1012.8
20260506034017 16 0.0 3.2 0.00 0.00 0.00 69 1012.9
20260506033017 17 0.0 0.0 0.00 0.00 0.00 67 1012.8
20260506032037 17 0.0 0.0 0.00 0.00 0.00 66 1012.7
20260506031019 17 0.0 0.0 0.00 0.00 0.00 64 1012.9
20260506030017 17 0.0 1.6 0.00 0.00 0.00 62 1012.9
20260506025018 17 0.0 0.0 0.00 0.00 0.00 61 1013.2
20260506024037 17 0.0 1.6 0.00 0.00 0.00 61 1013.3
20260506023019 17 0.0 3.2 0.00 0.00 0.00 60 1013.2
20260506022017 18 0.0 1.6 0.00 0.00 0.00 61 1013.0
20260506021037 18 0.0 3.2 0.00 0.00 0.00 59 1013.0
20260506020017 18 0.0 3.2 0.00 0.00 0.00 60 1012.9
20260506015017 18 0.0 1.6 0.00 0.00 0.00 59 1012.9
20260506014017 19 0.0 3.2 0.00 0.00 0.00 59 1012.9
20260506013018 20 0.0 3.2 0.00 0.00 0.00 57 1012.6
20260506012037 20 0.0 3.2 0.00 0.00 0.00 52 1012.5
20260506011019 21 0.0 1.6 0.00 0.00 0.00 50 1012.6
20260506010017 21 0.0 3.2 0.00 0.00 0.00 49 1012.7
20260506005017 22 0.0 0.0 0.00 0.00 0.00 47 1012.6
20260506004018 22 0.0 0.0 0.00 0.00 0.00 44 1012.5
20260506003017 23 0.0 3.2 0.00 0.00 0.00 42 1012.4
20260506002017 23 0.0 3.2 0.00 0.00 0.00 41 1012.5
20260506001017 24 225 1.6 6.4 0.00 0.00 0.00 41 1012.4
20260506000017 24 203 3.2 6.4 0.00 0.00 0.00 41 1012.4
20260505235038 24 203 1.6 6.4 0.00 0.00 0.00 42 1012.2
20260505234018 25 203 3.2 9.7 0.00 0.00 0.00 43 1012.0
20260505233058 25 225 4.8 11.3 0.00 0.00 0.00 42 1012.0
20260505232018 25 225 4.8 14.5 0.00 0.00 0.00 42 1011.9
20260505231018 25 203 6.4 14.5 0.00 0.00 0.00 41 1011.8
20260505230037 26 225 6.4 12.9 0.00 0.00 0.00 41 1011.8
20260505225018 26 225 3.2 11.3 0.00 0.00 0.00 42 1011.8
20260505224017 26 180 4.8 14.5 0.00 0.00 0.00 40 1011.8
20260505223018 26 180 8.0 16.1 0.00 0.00 0.00 39 1011.8
20260505222016 27 225 6.4 14.5 0.00 0.00 0.00 37 1011.9
20260505221017 27 158 6.4 19.3 0.00 0.00 0.00 38 1011.9
20260505220017 27 248 6.4 17.7 0.00 0.00 0.00 37 1011.9
20260505215016 27 180 4.8 14.5 0.00 0.00 0.00 37 1011.9
20260505214017 28 180 6.4 14.5 0.00 0.00 0.00 37 1012.2
20260505213017 28 180 4.8 9.7 0.00 0.00 0.00 39 1012.3
20260505212018 28 158 6.4 16.1 0.00 0.00 0.00 38 1012.4
20260505211017 28 225 6.4 14.5 0.00 0.00 0.00 37 1012.3
20260505210017 28 180 4.8 12.9 0.00 0.00 0.00 37 1012.3
20260505205017 28 225 6.4 12.9 0.00 0.00 0.00 36 1012.4
20260505204037 28 225 3.2 8.0 0.00 0.00 0.00 40 1012.4
20260505203036 28 225 8.0 17.7 0.00 0.00 0.00 37 1012.6
20260505202059 28 180 9.7 17.7 0.00 0.00 0.00 37 1012.7
20260505201016 28 180 8.0 17.7 0.00 0.00 0.00 39 1012.8
20260505200016 28 158 4.8 17.7 0.00 0.00 0.00 38 1012.8
20260505195119 28 180 4.8 12.9 0.00 0.00 0.00 38 1013.0
20260505194017 28 135 4.8 11.3 0.00 0.00 0.00 38 1013.1
20260505193017 27 158 6.4 16.1 0.00 0.00 0.00 39 1013.4
20260505192018 27 180 6.4 12.9 0.00 0.00 0.00 38 1013.3
20260505191017 27 158 3.2 9.7 0.00 0.00 0.00 42 1013.4
20260505190037 27 180 8.0 20.9 0.00 0.00 0.00 42 1013.6
20260505185016 27 113 6.4 14.5 0.00 0.00 0.00 41 1013.7
20260505184016 27 180 8.0 19.3 0.00 0.00 0.00 42 1014.0
20260505183016 27 180 6.4 16.1 0.00 0.00 0.00 41 1014.2
20260505182017 27 180 6.4 14.5 0.00 0.00 0.00 44 1014.4
20260505181016 27 203 6.4 11.3 0.00 0.00 0.00 41 1014.4
20260505180016 27 225 6.4 12.9 0.00 0.00 0.00 39 1014.5
20260505175017 26 113 4.8 14.5 0.00 0.00 0.00 42 1014.5
20260505174016 26 225 6.4 17.7 0.00 0.00 0.00 46 1014.6
20260505173016 26 248 6.4 17.7 0.00 0.00 0.00 48 1014.7
20260505172016 26 113 4.8 11.3 0.00 0.00 0.00 44 1014.6
20260505171016 26 158 6.4 16.1 0.00 0.00 0.00 47 1014.8
20260505170016 26 180 8.0 16.1 0.00 0.00 0.00 48 1014.8
20260505165016 25 180 6.4 22.5 0.00 0.00 0.00 47 1014.9
20260505164017 25 135 4.8 12.9 0.00 0.00 0.00 50 1015.0
20260505163016 25 180 6.4 12.9 0.00 0.00 0.00 49 1015.1
20260505162016 25 113 4.8 14.5 0.00 0.00 0.00 49 1015.3
20260505161038 25 203 3.2 6.4 0.00 0.00 0.00 52 1015.5
20260505153016 23 180 3.2 9.7 0.00 0.00 0.00 51 1015.7
20260505152016 23 23 3.2 8.0 0.00 0.00 0.00 54 1015.9
20260505151016 23 113 4.8 11.3 0.00 0.00 0.00 52 1015.6